Location: Godzisko
(49.9648°N, 19.4576°E)
Time: 07:20:17
(UTC+00:00)

Cosmos 1733 - Pass Details

Date: 20 April 2021
Orbit: 503 x 522 km, 82.5° (Epoch: 05 May)

Event Time Altitude Azimuth Distance (km) Brightness Sun altitude
Rises 02:39:47 0° 342° (NNW) 2,622 7.0 -9.5°
Reaches altitude 10° 02:42:03 10° 332° (NNW) 1,729 5.9 -9.2°
Maximum altitude 02:45:27 32° 268° (W) 879 3.9 -8.7°
Drops below altitude 10° 02:48:49 10° 204° (SSW) 1,711 5.4 -8.2°
Enters shadow 02:50:36 - 196° (SSW) 2,405 6.2 -8.0°
